Weather History for K2WX - March, 2013

Change the Weather History Date:

Sunday, March 24, 2013

  Actual Average Record
Temperature  
Mean Temperature 12 °F 35 °F  
Max Temperature 20 °F 46 °F 66 °F (2004)
Min Temperature 3 °F 24 °F 3 °F (2013)
Degree Days  
Heating Degree Days 53 30  
Month to date heating degree days 860 809  
Since 1 July heating degree days 6197 6606  
Cooling Degree Days 0 0  
Month to date cooling degree days 0 0  
Year to date cooling degree days 0 0  
Moisture  
Dew Point 8 °F    
Average Humidity 81    
Maximum Humidity 88    
Minimum Humidity 73    
Precipitation  
Precipitation 0.00 in 0.03 in 0.16 in (2009)
Month to date precipitation 0.33 0.59  
Year to date precipitation 0.48 1.16  
Sea Level Pressure  
Sea Level Pressure 30.31 in    
Wind  
Wind Speed 17 mph (NW)    
Max Wind Speed 28 mph    
Max Gust Speed 33 mph    
T = Trace of Precipitation, MM = Missing Value Source: NWS Daily Summary

Daily Weather History Graph

Daily Weather History Graph

Search for Another Location

Airport or City:

Trip Planner

Search our weather history database for the weather conditions in past years. The results will help you decide how hot, cold, wet, or windy it might be!

Date:

Astronomy

Mar. 24, 2013 Rise Set
Actual Time 6:49 AM MDT 7:12 PM MDT
Civil Twilight 6:19 AM MDT 7:42 PM MDT
Nautical Twilight 5:44 AM MDT 8:17 PM MDT
Astronomical Twilight 5:08 AM MDT 8:53 PM MDT
Moon 4:37 PM MDT (3/24) 5:07 AM MDT (3/24)
Length of Visible Light 13h 22m
Length of Day
12h 23m
Waxing Gibbous, 92% of the Moon is Illuminated
Mar 24
Waxing Gibbous
Mar 27
Full
Apr 2
Last Quarter
Apr 10
New
Apr 18
First Quarter

Hourly Weather History & Observations

Time (MDT) Temp. Windchill Dew Point Humidity Pressure Visibility Wind Dir Wind Speed Gust Speed Precip Events Conditions
12:56 AM 8.1 °F -7.7 °F 3.9 °F 83% 30.27 in - WNW 12.7 mph - N/A   Unknown
1:56 AM 8.1 °F -7.0 °F 3.9 °F 83% 30.27 in - NW 11.5 mph - N/A   Unknown
2:56 AM 6.1 °F -6.8 °F 3.0 °F 87% 30.27 in - WNW 8.1 mph - N/A   Unknown
3:56 AM 5.0 °F -10.8 °F 1.9 °F 87% 30.26 in - NW 11.5 mph - N/A   Unknown
4:56 AM 5.0 °F -13.6 °F 1.0 °F 84% 30.26 in - WNW 16.1 mph - N/A   Unknown
5:56 AM 5.0 °F -13.6 °F 1.0 °F 84% 30.27 in - NW 16.1 mph - N/A   Unknown
6:56 AM 6.1 °F -12.8 °F 1.9 °F 83% 30.27 in - NW 17.3 mph - N/A   Unknown
7:56 AM 9.0 °F -10.5 °F 3.9 °F 80% 30.27 in - NW 20.7 mph - N/A   Unknown
8:56 AM 10.9 °F -9.2 °F 6.1 °F 81% 30.27 in - NW 24.2 mph 33.4 mph N/A   Unknown
9:56 AM 12.9 °F -6.9 °F 7.0 °F 77% 30.29 in - NW 25.3 mph 31.1 mph N/A   Unknown
10:56 AM 16.0 °F -2.1 °F 9.0 °F 74% 30.30 in - NW 23.0 mph - N/A   Unknown
11:56 AM 17.1 °F -1.0 °F 10.0 °F 74% 30.31 in - NW 24.2 mph - N/A   Unknown
12:56 PM 19.0 °F 2.0 °F 12.0 °F 74% 30.29 in - NW 23.0 mph - N/A   Unknown
1:56 PM 19.0 °F 1.6 °F 12.0 °F 74% 30.30 in - NNW 24.2 mph - N/A   Unknown
2:56 PM 19.9 °F 2.5 °F 12.0 °F 71% 30.31 in - NNW 25.3 mph - N/A   Unknown
3:56 PM 19.0 °F 0.6 °F 12.0 °F 74% 30.32 in - NNW 27.6 mph 31.1 mph N/A   Unknown
4:56 PM 19.9 °F 3.2 °F 12.0 °F 71% 30.33 in - NW 23.0 mph 29.9 mph N/A   Unknown
5:56 PM 18.0 °F 0.6 °F 10.9 °F 74% 30.35 in - NW 23.0 mph - N/A   Unknown
6:56 PM 16.0 °F 2.3 °F 10.0 °F 77% 30.38 in - NNW 12.7 mph - N/A   Unknown
7:56 PM 16.0 °F 2.9 °F 9.0 °F 74% 30.38 in - NNW 11.5 mph - N/A   Unknown
8:56 PM 16.0 °F 1.1 °F 9.0 °F 74% 30.37 in - NNW 15.0 mph - N/A   Unknown
9:56 PM 15.1 °F 3.3 °F 10.0 °F 80% 30.39 in - NNW 9.2 mph - N/A   Unknown
10:56 PM 15.1 °F 4.2 °F 10.9 °F 84% 30.38 in - NW 8.1 mph - N/A   Unknown
11:56 PM 14.0 °F 2.9 °F 10.9 °F 88% 30.39 in - NW 8.1 mph - N/A   Unknown